Regional Weather Roundup
Issued by NWS

Home | Current Version | Previous Version | Graphics & Text | Print | Product List | Glossary On
Versions: 1 2 3 4 5 6 7 8 9 10 11 12 13 14 15 16 17 18 19 20 21 22 23 24 25 26 27 28 29 30 31 32 33 34 35 36 37 38 39 40 41 42 43 44 45 46 47 48 49 50
000
ASUS45 KBOI 301710
RWRID
WEATHER ROUNDUP FOR IDAHO
NATIONAL WEATHER SERVICE BOISE ID
1100 AM MDT SAT AUG 30 2014

NOTE: "FAIR" INDICATES FEW OR NO CLOUDS BELOW 12000 FEET
WITH NO SIGNIFICANT WEATHER AND/OR OBSTRUCTIONS TO VISIBILITY

IDZ012-014-301800-
SOUTHWEST IDAHO


CITY           SKY/WX    TMP DP  RH WIND       PRES   REMARKS
BOISE          MOSUNNY   69  43  38 NW8       29.93R
CALDWELL       MOSUNNY   72  41  33 NW10      29.94S
MOUNTAIN HOME  PTSUNNY   72  41  32 NW17      29.93R
$$

IDZ016-017-301800-
SOUTHCENTRAL IDAHO


CITY           SKY/WX    TMP DP  RH WIND       PRES   REMARKS
BURLEY         PTSUNNY   68  46  45 W14G24    29.95R
JEROME         CLOUDY    65  45  48 SW12      29.97R
TWIN FALLS     CLOUDY    69  43  38 W17       29.98R
$$

IDZ019>023-301800-
SOUTHEAST IDAHO


CITY           SKY/WX    TMP DP  RH WIND       PRES   REMARKS
IDAHO FALLS    PTSUNNY   68  49  50 SW18G28   29.93R
POCATELLO      SUNNY     68  46  45 SW24G32   29.97R
REXBURG        CLOUDY    66  46  48 SW17G24   29.92R
$$

IDZ006-010-011-018-031-032-301800-
CENTRAL IDAHO MOUNTAINS


CITY           SKY/WX    TMP DP  RH WIND       PRES   REMARKS
MCCALL         MOSUNNY   63  40  42 MISG      29.96R
HAILEY         PTSUNNY   61  52  72 SE6       29.97F
STANLEY          N/A     57  48  72 SE5       30.02F
SALMON         CLOUDY    61  52  72 N3        29.90F
CHALLIS        CLOUDY    60  52  74 N3        29.95S
$$

IDZ002-004-006-007-026-301800-
NORTHERN IDAHO


CITY           SKY/WX    TMP DP  RH WIND       PRES   REMARKS
LEWISTON       SUNNY     72  46  39 N5        29.90S
LOWELL           N/A     66  54  65 CALM      29.92S
COEUR D`ALENE  SUNNY     64  45  48 SW8       29.89S
MULLAN PASS    CLOUDY    48  39  71 VRB3      29.98R
$$


USA.gov is the U.S. government's official web portal to all federal, state and local government web resources and services.